19-06-2022, 00:00:08,      0,    0.2,    6.7,   0.00,   0.00, 1014.1,   98.9, -999.0
19-06-2022, 00:00:18,      0,    0.3,    6.9,   0.00,   0.00, 1014.1,   99.1, -999.0
19-06-2022, 00:00:27,      0,    0.0,    6.9,   0.00,   0.00, 1014.0,   98.7, -999.0
19-06-2022, 00:00:38,      0,    0.0,    6.8,   0.00,   0.00, 1014.0,   98.7, -999.0
19-06-2022, 00:00:48,      0,    0.2,    6.8,   0.00,   0.00, 1014.1,   98.9, -999.0
19-06-2022, 00:00:57,      0,    0.2,    6.9,   0.00,   0.00, 1014.2,   99.3, -999.0
19-06-2022, 00:01:08,      0,    0.0,    6.8,   0.00,   0.00, 1014.0,   98.8, -999.0
19-06-2022, 00:01:17,      0,    0.4,    6.8,   0.00,   0.00, 1014.1,   99.1, -999.0
19-06-2022, 00:01:27,    350,    0.9,    6.9,   0.00,   0.00, 1014.2,   99.0, -999.0
19-06-2022, 00:01:37,    350,    1.2,    6.8,   0.00,   0.00, 1014.2,   99.0, -999.0
19-06-2022, 00:01:47,    350,    0.7,    6.8,   0.00,   0.00, 1014.2,   99.1, -999.0
19-06-2022, 00:01:57,    350,    0.2,    6.8,   0.00,   0.00, 1014.2,   99.0, -999.0
19-06-2022, 00:02:07,    350,    0.2,    6.8,   0.00,   0.00, 1014.2,   99.0, -999.0
19-06-2022, 00:02:17,    350,    0.3,    6.8,   0.00,   0.00, 1014.2,   99.2, -999.0
19-06-2022, 00:02:27,    350,    0.0,    6.8,   0.00,   0.00, 1014.2,   98.8, -999.0
19-06-2022, 00:02:37,    350,    0.5,    6.8,   0.00,   0.00, 1014.2,   99.1, -999.0
19-06-2022, 00:02:47,    350,    0.5,    6.9,   0.00,   0.00, 1014.2,   99.1, -999.0
19-06-2022, 00:02:57,    350,    0.4,    6.9,   0.00,   0.00, 1014.2,   99.1, -999.0
19-06-2022, 00:03:07,    350,    0.8,    6.8,   0.00,   0.00, 1014.2,   99.1, -999.0
19-06-2022, 00:03:17,    350,    0.3,    6.8,   0.00,   0.00, 1014.3,   99.1, -999.0
19-06-2022, 00:03:27,    350,    0.2,    6.8,   0.00,   0.00, 1014.2,   99.0, -999.0
19-06-2022, 00:03:36,    350,    0.2,    6.8,   0.00,   0.00, 1014.2,   99.0, -999.0
19-06-2022, 00:03:47,    350,    0.0,    6.7,   0.00,   0.00, 1014.1,   98.8, -999.0
19-06-2022, 00:03:57,    350,    0.5,    6.8,   0.00,   0.00, 1014.3,   99.2, -999.0
19-06-2022, 00:04:06,    350,    0.7,    6.8,   0.00,   0.00, 1014.3,   99.1, -999.0
19-06-2022, 00:04:16,    350,    0.6,    6.9,   0.00,   0.00, 1014.3,   99.1, -999.0
19-06-2022, 00:04:26,    350,    0.1,    6.8,   0.00,   0.00, 1014.2,   99.0, -999.0
19-06-2022, 00:04:36,    350,    0.2,    6.8,   0.00,   0.00, 1014.1,   98.8, -999.0
19-06-2022, 00:04:46,    350,    0.8,    6.9,   0.00,   0.00, 1014.3,   99.0, -999.0
19-06-2022, 00:04:56,    350,    0.6,    6.9,   0.00,   0.00, 1014.2,   99.0, -999.0
19-06-2022, 00:05:06,    350,    0.2,    6.8,   0.00,   0.00, 1014.2,   99.1, -999.0
19-06-2022, 00:05:16,    350,    0.4,    6.7,   0.00,   0.00, 1014.2,   98.8, -999.0
19-06-2022, 00:05:26,    350,    0.5,    6.8,   0.00,   0.00, 1014.2,   99.1, -999.0
19-06-2022, 00:05:36,    350,    0.0,    6.8,   0.00,   0.00, 1014.1,   98.9, -999.0
19-06-2022, 00:05:46,    350,    0.2,    6.8,   0.00,   0.00, 1014.2,   99.0, -999.0
19-06-2022, 00:05:56,    350,    0.7,    6.8,   0.00,   0.00, 1014.2,   99.2, -999.0
19-06-2022, 00:06:06,    350,    1.3,    6.9,   0.00,   0.00, 1014.2,   99.2, -999.0
19-06-2022, 00:06:16,    350,    0.6,    6.8,   0.00,   0.00, 1014.2,   99.0, -999.0
19-06-2022, 00:06:26,    349,    0.2,    6.9,   0.00,   0.00, 1014.1,   99.0, -999.0
19-06-2022, 00:06:36,    350,    0.0,    6.8,   0.00,   0.00, 1014.1,   99.0, -999.0
19-06-2022, 00:06:45,    350,    0.1,    6.8,   0.00,   0.00, 1014.1,   99.0, -999.0
19-06-2022, 00:06:56,    350,    0.2,    6.8,   0.00,   0.00, 1014.1,   99.1, -999.0
19-06-2022, 00:07:05,    350,    0.6,    7.0,   0.00,   0.00, 1014.2,   99.1, -999.0
19-06-2022, 00:07:15,    350,    0.2,    6.8,   0.00,   0.00, 1014.2,   99.0, -999.0
19-06-2022, 00:07:26,    352,    0.1,    6.8,   0.00,   0.00, 1014.2,   99.1, -999.0
19-06-2022, 00:07:35,    350,    0.2,    6.9,   0.00,   0.00, 1014.2,   99.0, -999.0
19-06-2022, 00:07:45,    350,    0.4,    7.0,   0.00,   0.00, 1014.2,   99.0, -999.0
19-06-2022, 00:07:55,    358,    0.9,    7.0,   0.00,   0.00, 1014.2,   99.1, -999.0
19-06-2022, 00:08:05,    358,    0.8,    6.8,   0.00,   0.00, 1014.2,   99.3, -999.0
19-06-2022, 00:08:15,    358,    0.6,    6.9,   0.00,   0.00, 1014.2,   99.0, -999.0
19-06-2022, 00:08:25,    358,    0.6,    6.9,   0.00,   0.00, 1014.2,   99.2, -999.0
19-06-2022, 00:08:35,    358,    0.3,    6.9,   0.00,   0.00, 1014.3,   99.0, -999.0
19-06-2022, 00:08:45,    355,    0.7,    6.9,   0.00,   0.00, 1014.3,   99.1, -999.0
19-06-2022, 00:08:55,    355,    0.0,    6.9,   0.00,   0.00, 1014.2,   98.9, -999.0
19-06-2022, 00:09:05,    355,    0.1,    6.9,   0.00,   0.00, 1014.2,   98.9, -999.0
19-06-2022, 00:09:15,    355,    0.0,    6.9,   0.00,   0.00, 1014.2,   98.8, -999.0
19-06-2022, 00:09:25,    355,    0.0,    6.9,   0.00,   0.00, 1014.1,   98.7, -999.0
19-06-2022, 00:09:35,    355,    0.0,    6.8,   0.00,   0.00, 1014.1,   98.8, -999.0
19-06-2022, 00:09:45,    355,    0.0,    6.8,   0.00,   0.00, 1014.1,   98.8, -999.0
19-06-2022, 00:09:54,    355,    0.3,    6.9,   0.00,   0.00, 1014.2,   99.0, -999.0
19-06-2022, 00:10:05,    353,    1.7,    7.0,   0.00,   0.00, 1014.3,   99.0, -999.0
19-06-2022, 00:10:14,    353,    2.0,    6.9,   0.00,   0.00, 1014.3,   99.0, -999.0
19-06-2022, 00:10:24,    353,    1.3,    6.9,   0.00,   0.00, 1014.3,   99.2, -999.0
19-06-2022, 00:10:35,    353,    0.8,    6.9,   0.00,   0.00, 1014.3,   99.1, -999.0
19-06-2022, 00:10:44,    353,    0.6,    6.8,   0.00,   0.00, 1014.2,   99.1, -999.0
19-06-2022, 00:10:54,    353,    0.3,    6.8,   0.00,   0.00, 1014.2,   99.4, -999.0
19-06-2022, 00:11:04,    353,    0.4,    6.9,   0.00,   0.00, 1014.2,   98.9, -999.0
19-06-2022, 00:11:14,    353,    0.0,    6.8,   0.00,   0.00, 1014.1,   98.9, -999.0
19-06-2022, 00:11:24,    353,    0.1,    6.8,   0.00,   0.00, 1014.1,   99.0, -999.0
19-06-2022, 00:11:34,    353,    0.1,    6.8,   0.00,   0.00, 1014.1,   98.9, -999.0
19-06-2022, 00:11:44,    353,    0.0,    6.8,   0.00,   0.00, 1014.1,   98.8, -999.0
19-06-2022, 00:11:54,    353,    0.1,    6.8,   0.00,   0.00, 1014.2,   98.9, -999.0
19-06-2022, 00:12:04,    352,    0.0,    6.8,   0.00,   0.00, 1014.1,   98.8, -999.0
19-06-2022, 00:12:14,    353,    0.0,    6.9,   0.00,   0.00, 1014.1,   98.8, -999.0
19-06-2022, 00:12:24,    353,    0.0,    6.9,   0.00,   0.00, 1014.1,   98.9, -999.0
19-06-2022, 00:12:34,    353,    0.0,    6.7,   0.00,   0.00, 1014.1,   98.8, -999.0
19-06-2022, 00:12:44,    353,    0.0,    6.8,   0.00,   0.00, 1014.1,   98.9, -999.0
19-06-2022, 00:12:54,    353,    0.0,    6.9,   0.00,   0.00, 1014.1,   98.7, -999.0
19-06-2022, 00:13:03,    353,    0.0,    6.9,   0.00,   0.00, 1014.1,   98.7, -999.0
19-06-2022, 00:13:14,    353,    0.0,    6.9,   0.00,   0.00, 1014.1,   98.8, -999.0
19-06-2022, 00:13:23,    353,    0.0,    6.9,   0.00,   0.00, 1014.1,   98.7, -999.0
19-06-2022, 00:13:33,    353,    0.0,    6.9,   0.00,   0.00, 1014.0,   98.8, -999.0
19-06-2022, 00:13:44,    353,    0.0,    6.8,   0.00,   0.00, 1014.0,   98.7, -999.0
19-06-2022, 00:13:53,    353,    0.0,    6.8,   0.00,   0.00, 1014.1,   98.7, -999.0
19-06-2022, 00:14:03,    353,    0.0,    6.8,   0.00,   0.00, 1014.1,   98.7, -999.0
19-06-2022, 00:14:13,    353,    0.0,    6.8,   0.00,   0.00, 1014.1,   98.8, -999.0
19-06-2022, 00:14:23,    353,    0.0,    6.7,   0.00,   0.00, 1014.0,   98.7, -999.0
19-06-2022, 00:14:33,    353,    0.0,    6.8,   0.00,   0.00, 1014.0,   98.8, -999.0
19-06-2022, 00:14:43,    353,    0.2,    6.9,   0.00,   0.00, 1014.1,   98.9, -999.0
19-06-2022, 00:14:53,    352,    0.0,    6.9,   0.00,   0.00, 1014.0,   98.8, -999.0
19-06-2022, 00:15:03,    353,    0.0,    7.0,   0.00,   0.00, 1014.0,   98.7, -999.0
19-06-2022, 00:15:13,    353,    0.0,    6.9,   0.00,   0.00, 1014.0,   98.8, -999.0
19-06-2022, 00:15:23,    352,    0.0,    6.8,   0.00,   0.00, 1014.0,   98.8, -999.0
19-06-2022, 00:15:33,    353,    0.0,    6.9,   0.00,   0.00, 1014.0,   98.8, -999.0
19-06-2022, 00:15:43,    352,    0.3,    6.9,   0.00,   0.00, 1014.1,   99.0, -999.0
19-06-2022, 00:15:53,    352,    0.2,    6.9,   0.00,   0.00, 1014.0,   99.0, -999.0
19-06-2022, 00:16:02,    352,    0.0,    6.8,   0.00,   0.00, 1014.0,   98.8, -999.0
19-06-2022, 00:16:12,    352,    0.0,    6.9,   0.00,   0.00, 1014.0,   98.8, -999.0
19-06-2022, 00:16:23,    352,    0.0,    6.8,   0.00,   0.00, 1014.0,   98.7, -999.0
19-06-2022, 00:16:32,    352,    0.0,    6.9,   0.00,   0.00, 1013.9,   98.8, -999.0
19-06-2022, 00:16:42,    353,    0.0,    6.9,   0.00,   0.00, 1014.0,   98.7, -999.0
19-06-2022, 00:16:53,    352,    0.0,    6.9,   0.00,   0.00, 1013.9,   98.8, -999.0
19-06-2022, 00:17:02,    352,    0.0,    6.9,   0.00,   0.00, 1013.9,   98.7, -999.0
19-06-2022, 00:17:12,    353,    0.0,    6.9,   0.00,   0.00, 1013.9,   98.8, -999.0
19-06-2022, 00:17:22,    352,    0.0,    6.8,   0.00,   0.00, 1013.9,   98.8, -999.0
19-06-2022, 00:17:32,    353,    0.0,    6.9,   0.00,   0.00, 1013.9,   98.8, -999.0
19-06-2022, 00:17:42,    352,    0.0,    6.8,   0.00,   0.00, 1013.9,   98.8, -999.0
19-06-2022, 00:17:52,    352,    0.0,    6.9,   0.00,   0.00, 1013.9,   98.8, -999.0
19-06-2022, 00:18:02,    352,    0.0,    6.9,   0.00,   0.00, 1013.9,   98.9, -999.0
19-06-2022, 00:18:12,    352,    0.0,    6.8,   0.00,   0.00, 1013.9,   98.8, -999.0
19-06-2022, 00:18:24,    353,    0.0,    6.8,   0.00,   0.00, 1013.9,   98.9, -999.0
19-06-2022, 00:18:32,    352,    0.7,    7.0,   0.00,   0.00, 1014.1,   99.2, -999.0
19-06-2022, 00:18:41,    352,    0.1,    6.9,   0.00,   0.00, 1014.0,   99.0, -999.0
19-06-2022, 00:18:52,    352,    0.0,    6.9,   0.00,   0.00, 1013.9,   98.8, -999.0
19-06-2022, 00:19:02,    352,    0.0,    6.9,   0.00,   0.00, 1013.9,   98.7, -999.0
19-06-2022, 00:19:11,    352,    0.4,    6.9,   0.00,   0.00, 1014.0,   99.1, -999.0
19-06-2022, 00:19:21,    353,    0.1,    6.9,   0.00,   0.00, 1013.9,   98.8, -999.0
19-06-2022, 00:19:32,    353,    0.0,    6.9,   0.00,   0.00, 1013.9,   98.7, -999.0
19-06-2022, 00:19:41,    352,    0.0,    7.0,   0.00,   0.00, 1013.8,   98.8, -999.0
19-06-2022, 00:19:51,    352,    0.0,    7.0,   0.00,   0.00, 1013.9,   98.7, -999.0
19-06-2022, 00:20:02,    352,    0.0,    7.0,   0.00,   0.00, 1013.9,   98.8, -999.0
19-06-2022, 00:20:11,    353,    0.2,    7.0,   0.00,   0.00, 1013.9,   99.0, -999.0
19-06-2022, 00:20:21,    352,    0.0,    7.0,   0.00,   0.00, 1013.8,   98.8, -999.0
19-06-2022, 00:20:31,    353,    0.0,    7.0,   0.00,   0.00, 1013.8,   98.8, -999.0
19-06-2022, 00:20:41,    352,    0.0,    6.9,   0.00,   0.00, 1013.8,   98.8, -999.0
19-06-2022, 00:20:51,    352,    0.0,    6.9,   0.00,   0.00, 1013.8,   98.8, -999.0
19-06-2022, 00:21:01,    352,    0.0,    6.9,   0.00,   0.00, 1013.8,   98.8, -999.0
19-06-2022, 00:21:11,    352,    0.0,    6.9,   0.00,   0.00, 1013.8,   98.7, -999.0
19-06-2022, 00:21:21,    352,    0.0,    7.0,   0.00,   0.00, 1013.8,   98.8, -999.0
19-06-2022, 00:21:31,    352,    0.0,    7.0,   0.00,   0.00, 1013.8,   98.8, -999.0
19-06-2022, 00:21:41,    352,    0.0,    6.9,   0.00,   0.00, 1013.8,   98.8, -999.0
19-06-2022, 00:21:50,    352,    0.0,    7.0,   0.00,   0.00, 1013.7,   98.8, -999.0
19-06-2022, 00:22:01,    353,    0.0,    7.0,   0.00,   0.00, 1013.8,   99.0, -999.0
19-06-2022, 00:22:11,    352,    0.0,    7.0,   0.00,   0.00, 1013.8,   99.0, -999.0
19-06-2022, 00:22:20,    352,    0.5,    7.1,   0.00,   0.00, 1013.9,   99.0, -999.0
19-06-2022, 00:22:31,    353,    0.6,    7.0,   0.00,   0.00, 1013.9,   99.2, -999.0
19-06-2022, 00:22:41,    352,    0.0,    7.0,   0.00,   0.00, 1013.8,   98.8, -999.0
19-06-2022, 00:22:50,    353,    0.2,    7.0,   0.00,   0.00, 1013.9,   99.0, -999.0
19-06-2022, 00:23:00,    352,    0.2,    7.0,   0.00,   0.00, 1014.0,   99.0, -999.0
19-06-2022, 00:23:10,    353,    0.2,    7.0,   0.00,   0.00, 1013.9,   99.0, -999.0
19-06-2022, 00:23:20,    353,    0.1,    7.0,   0.00,   0.00, 1013.9,   99.1, -999.0
19-06-2022, 00:23:30,    353,    0.0,    7.0,   0.00,   0.00, 1013.9,   98.7, -999.0
19-06-2022, 00:23:40,    352,    0.0,    6.9,   0.00,   0.00, 1013.9,   98.7, -999.0
19-06-2022, 00:23:50,    352,    0.0,    7.0,   0.00,   0.00, 1013.9,   98.7, -999.0
19-06-2022, 00:24:00,    352,    0.2,    7.0,   0.00,   0.00, 1013.9,   98.9, -999.0
19-06-2022, 00:24:10,    352,    0.0,    6.9,   0.00,   0.00, 1013.9,   98.8, -999.0
19-06-2022, 00:24:20,    352,    0.0,    6.9,   0.00,   0.00, 1013.9,   98.7, -999.0
19-06-2022, 00:24:30,    352,    0.0,    6.9,   0.00,   0.00, 1013.9,   98.8, -999.0
19-06-2022, 00:24:40,    353,    0.0,    6.9,   0.00,   0.00, 1013.9,   98.7, -999.0
19-06-2022, 00:24:50,    352,    0.0,    6.9,   0.00,   0.00, 1013.9,   99.0, -999.0
19-06-2022, 00:24:59,    353,    0.1,    7.0,   0.00,   0.00, 1013.9,   98.9, -999.0
19-06-2022, 00:25:10,    352,    0.0,    7.0,   0.00,   0.00, 1013.9,   98.8, -999.0
19-06-2022, 00:25:20,    353,    0.0,    7.0,   0.00,   0.00, 1013.9,   98.9, -999.0
19-06-2022, 00:25:29,    352,    0.1,    7.0,   0.00,   0.00, 1014.0,   98.9, -999.0
19-06-2022, 00:25:39,    353,    0.0,    6.9,   0.00,   0.00, 1013.9,   98.8, -999.0
19-06-2022, 00:25:50,    352,    0.0,    6.9,   0.00,   0.00, 1013.9,   98.8, -999.0
19-06-2022, 00:25:59,    352,    0.0,    6.8,   0.00,   0.00, 1013.9,   98.8, -999.0
19-06-2022, 00:26:09,    353,    0.0,    6.9,   0.00,   0.00, 1013.9,   98.8, -999.0
19-06-2022, 00:26:19,    352,    0.0,    6.9,   0.00,   0.00, 1013.9,   98.8, -999.0
19-06-2022, 00:26:29,    352,    0.0,    6.9,   0.00,   0.00, 1013.9,   98.8, -999.0
19-06-2022, 00:26:39,    352,    0.0,    6.8,   0.00,   0.00, 1013.9,   98.8, -999.0
19-06-2022, 00:26:49,    352,    0.0,    6.9,   0.00,   0.00, 1013.9,   98.7, -999.0
19-06-2022, 00:26:59,    352,    0.0,    6.8,   0.00,   0.00, 1013.9,   98.8, -999.0
19-06-2022, 00:27:09,    353,    0.2,    7.0,   0.00,   0.00, 1014.0,   99.1, -999.0
19-06-2022, 00:27:19,    352,    0.3,    6.8,   0.00,   0.00, 1014.0,   99.1, -999.0
19-06-2022, 00:27:29,    352,    0.0,    6.9,   0.00,   0.00, 1014.0,   99.0, -999.0
19-06-2022, 00:27:39,    352,    0.0,    6.8,   0.00,   0.00, 1013.9,   98.9, -999.0
19-06-2022, 00:27:49,    352,    0.0,    6.8,   0.00,   0.00, 1013.9,   98.7, -999.0
19-06-2022, 00:27:59,    352,    0.0,    6.9,   0.00,   0.00, 1013.9,   98.8, -999.0
19-06-2022, 00:28:08,    352,    0.0,    6.9,   0.00,   0.00, 1013.9,   98.8, -999.0
19-06-2022, 00:28:19,    352,    0.0,    6.9,   0.00,   0.00, 1013.9,   98.7, -999.0
19-06-2022, 00:28:29,    352,    0.0,    6.9,   0.00,   0.00, 1013.9,   98.8, -999.0
19-06-2022, 00:28:38,    352,    0.0,    6.9,   0.00,   0.00, 1013.9,   98.7, -999.0
19-06-2022, 00:28:49,    352,    0.0,    7.0,   0.00,   0.00, 1013.9,   98.7, -999.0
19-06-2022, 00:28:58,    352,    0.0,    7.0,   0.00,   0.00, 1013.9,   98.8, -999.0
19-06-2022, 00:29:08,    353,    0.0,    6.9,   0.00,   0.00, 1013.9,   98.8, -999.0
19-06-2022, 00:29:18,    353,    0.0,    6.9,   0.00,   0.00, 1013.9,   98.7, -999.0
19-06-2022, 00:29:28,    352,    0.0,    7.0,   0.00,   0.00, 1013.9,   98.8, -999.0
19-06-2022, 00:29:38,    352,    0.0,    6.9,   0.00,   0.00, 1013.9,   98.7, -999.0
19-06-2022, 00:29:48,    352,    0.0,    7.0,   0.00,   0.00, 1013.9,   98.8, -999.0
19-06-2022, 00:29:58,    352,    0.0,    7.0,   0.00,   0.00, 1013.9,   98.8, -999.0
19-06-2022, 00:30:08,    352,    0.0,    7.0,   0.00,   0.00, 1013.8,   98.8, -999.0
19-06-2022, 00:30:18,    352,    0.0,    7.1,   0.00,   0.00, 1013.8,   98.8, -999.0
19-06-2022, 00:30:28,    352,    0.0,    7.0,   0.00,   0.00, 1013.8,   98.8, -999.0
19-06-2022, 00:30:38,    352,    0.0,    7.0,   0.00,   0.00, 1013.8,   98.6, -999.0
19-06-2022, 00:30:48,    352,    0.0,    7.0,   0.00,   0.00, 1013.8,   98.7, -999.0
19-06-2022, 00:30:58,    352,    0.0,    7.0,   0.00,   0.00, 1013.8,   98.7, -999.0
19-06-2022, 00:31:08,    353,    0.0,    7.0,   0.00,   0.00, 1013.8,   98.7, -999.0
19-06-2022, 00:31:17,    352,    0.0,    6.9,   0.00,   0.00, 1013.8,   98.7, -999.0
19-06-2022, 00:31:28,    352,    0.0,    7.0,   0.00,   0.00, 1013.7,   98.8, -999.0
19-06-2022, 00:31:37,    352,    0.0,    7.0,   0.00,   0.00, 1013.7,   98.8, -999.0
19-06-2022, 00:31:47,    352,    0.0,    6.9,   0.00,   0.00, 1013.7,   98.7, -999.0
19-06-2022, 00:31:58,    352,    0.0,    7.0,   0.00,   0.00, 1013.7,   98.7, -999.0
19-06-2022, 00:32:07,    352,    0.0,    7.0,   0.00,   0.00, 1013.7,   98.8, -999.0
19-06-2022, 00:32:17,    352,    0.0,    6.9,   0.00,   0.00, 1013.7,   98.7, -999.0
19-06-2022, 00:32:27,    352,    0.0,    7.0,   0.00,   0.00, 1013.7,   98.7, -999.0
19-06-2022, 00:32:37,    352,    0.0,    7.0,   0.00,   0.00, 1013.7,   98.7, -999.0
19-06-2022, 00:32:47,    352,    0.0,    7.1,   0.00,   0.00, 1013.7,   98.8, -999.0
19-06-2022, 00:32:57,    352,    0.0,    7.1,   0.00,   0.00, 1013.7,   98.8, -999.0
19-06-2022, 00:33:07,    352,    0.0,    7.0,   0.00,   0.00, 1013.7,   98.7, -999.0
19-06-2022, 00:33:17,    352,    0.0,    7.0,   0.00,   0.00, 1013.7,   98.8, -999.0
19-06-2022, 00:33:27,    352,    0.0,    7.0,   0.00,   0.00, 1013.7,   98.7, -999.0
19-06-2022, 00:33:37,    352,    0.0,    7.0,   0.00,   0.00, 1013.7,   98.7, -999.0
19-06-2022, 00:33:47,    352,    0.0,    7.1,   0.00,   0.00, 1013.7,   98.8, -999.0
19-06-2022, 00:33:57,    352,    0.0,    7.0,   0.00,   0.00, 1013.7,   98.8, -999.0
19-06-2022, 00:34:07,    352,    0.0,    7.0,   0.00,   0.00, 1013.7,   98.8, -999.0
19-06-2022, 00:34:16,    353,    0.0,    7.0,   0.00,   0.00, 1013.7,   98.7, -999.0
19-06-2022, 00:34:27,    353,    0.0,    7.1,   0.00,   0.00, 1013.7,   98.7, -999.0
19-06-2022, 00:34:37,    352,    0.0,    7.0,   0.00,   0.00, 1013.7,   98.8, -999.0
19-06-2022, 00:34:46,    352,    0.0,    7.0,   0.00,   0.00, 1013.7,   98.8, -999.0
19-06-2022, 00:34:56,    353,    0.0,    6.9,   0.00,   0.00, 1013.7,   98.7, -999.0
19-06-2022, 00:35:07,    352,    0.0,    7.0,   0.00,   0.00, 1013.7,   98.7, -999.0
19-06-2022, 00:35:16,    352,    0.0,    7.0,   0.00,   0.00, 1013.7,   98.8, -999.0
19-06-2022, 00:35:26,    352,    0.0,    7.1,   0.00,   0.00, 1013.6,   98.7, -999.0
19-06-2022, 00:35:36,    352,    0.0,    7.0,   0.00,   0.00, 1013.7,   98.8, -999.0
19-06-2022, 00:35:46,    352,    0.0,    7.0,   0.00,   0.00, 1013.7,   98.8, -999.0
19-06-2022, 00:35:56,    352,    0.0,    7.0,   0.00,   0.00, 1013.7,   98.8, -999.0
19-06-2022, 00:36:06,    352,    0.0,    7.0,   0.00,   0.00, 1013.6,   98.8, -999.0
19-06-2022, 00:36:16,    352,    0.0,    7.0,   0.00,   0.00, 1013.7,   98.8, -999.0
19-06-2022, 00:36:26,    353,    0.0,    7.0,   0.00,   0.00, 1013.6,   98.7, -999.0
19-06-2022, 00:36:36,    352,    0.1,    7.1,   0.00,   0.00, 1013.6,   99.0, -999.0
19-06-2022, 00:36:46,    352,    0.0,    6.9,   0.00,   0.00, 1013.6,   98.9, -999.0
19-06-2022, 00:36:56,    353,    0.2,    6.9,   0.00,   0.00, 1013.7,   99.0, -999.0
19-06-2022, 00:37:06,    353,    0.6,    7.1,   0.00,   0.00, 1013.7,   99.2, -999.0
19-06-2022, 00:37:16,    352,    0.3,    6.9,   0.00,   0.00, 1013.7,   99.0, -999.0
19-06-2022, 00:37:25,    352,    0.0,    6.8,   0.00,   0.00, 1013.6,   98.8, -999.0
19-06-2022, 00:37:36,    352,    0.0,    6.8,   0.00,   0.00, 1013.6,   98.8, -999.0
19-06-2022, 00:37:46,    353,    0.0,    6.8,   0.00,   0.00, 1013.6,   98.7, -999.0
19-06-2022, 00:37:55,    352,    0.0,    6.9,   0.00,   0.00, 1013.6,   98.7, -999.0
19-06-2022, 00:38:05,    352,    0.0,    6.9,   0.00,   0.00, 1013.6,   98.7, -999.0
19-06-2022, 00:38:15,    352,    0.0,    6.8,   0.00,   0.00, 1013.6,   98.8, -999.0
19-06-2022, 00:38:25,    352,    0.0,    6.9,   0.00,   0.00, 1013.6,   98.8, -999.0
19-06-2022, 00:38:35,    352,    0.0,    6.8,   0.00,   0.00, 1013.6,   98.8, -999.0
19-06-2022, 00:38:45,    353,    0.0,    6.8,   0.00,   0.00, 1013.6,   98.6, -999.0
19-06-2022, 00:38:55,    353,    0.5,    6.9,   0.00,   0.00, 1013.7,   99.0, -999.0
19-06-2022, 00:39:05,    353,    0.2,    6.9,   0.00,   0.00, 1013.6,   99.0, -999.0
19-06-2022, 00:39:15,    352,    0.5,    6.8,   0.00,   0.00, 1013.7,   99.3, -999.0
19-06-2022, 00:39:25,    352,    0.4,    6.9,   0.00,   0.00, 1013.6,   99.0, -999.0
19-06-2022, 00:39:35,    353,    0.1,    6.7,   0.00,   0.00, 1013.6,   99.0, -999.0
19-06-2022, 00:39:45,    353,    0.1,    6.9,   0.00,   0.00, 1013.6,   98.9, -999.0
19-06-2022, 00:39:55,    353,    0.2,    6.9,   0.00,   0.00, 1013.7,   99.0, -999.0
19-06-2022, 00:40:05,    353,    0.5,    7.0,   0.00,   0.00, 1013.7,   99.1, -999.0
19-06-2022, 00:40:15,    353,    0.3,    6.9,   0.00,   0.00, 1013.7,   99.2, -999.0
19-06-2022, 00:40:25,    352,    0.0,    6.9,   0.00,   0.00, 1013.6,   98.9, -999.0
19-06-2022, 00:40:34,    352,    0.0,    6.9,   0.00,   0.00, 1013.6,   98.8, -999.0
19-06-2022, 00:40:45,    353,    0.1,    6.9,   0.00,   0.00, 1013.6,   98.8, -999.0
19-06-2022, 00:40:54,    352,    0.0,    6.9,   0.00,   0.00, 1013.6,   98.8, -999.0
19-06-2022, 00:41:04,    353,    0.1,    6.9,   0.00,   0.00, 1013.6,   98.8, -999.0
19-06-2022, 00:41:14,    352,    0.1,    6.9,   0.00,   0.00, 1013.6,   99.0, -999.0
19-06-2022, 00:41:24,    352,    0.0,    6.9,   0.00,   0.00, 1013.5,   98.9, -999.0
19-06-2022, 00:41:34,    352,    0.0,    6.9,   0.00,   0.00, 1013.5,   98.9, -999.0
19-06-2022, 00:41:44,    352,    0.0,    6.9,   0.00,   0.00, 1013.5,   98.8, -999.0
19-06-2022, 00:41:54,    352,    0.2,    6.9,   0.00,   0.00, 1013.6,   99.1, -999.0
19-06-2022, 00:42:04,    353,    0.5,    6.9,   0.00,   0.00, 1013.7,   99.2, -999.0
19-06-2022, 00:42:14,    353,    0.2,    6.9,   0.00,   0.00, 1013.6,   99.0, -999.0
19-06-2022, 00:42:24,    353,    0.5,    6.9,   0.00,   0.00, 1013.7,   99.3, -999.0
19-06-2022, 00:42:34,    353,    0.2,    6.7,   0.00,   0.00, 1013.6,   99.0, -999.0
19-06-2022, 00:42:44,    352,    0.1,    6.9,   0.00,   0.00, 1013.6,   98.9, -999.0
19-06-2022, 00:42:54,    353,    0.4,    7.0,   0.00,   0.00, 1013.6,   99.1, -999.0
19-06-2022, 00:43:04,    353,    0.5,    7.0,   0.00,   0.00, 1013.6,   99.2, -999.0
19-06-2022, 00:43:14,    353,    0.5,    6.9,   0.00,   0.00, 1013.6,   99.1, -999.0
19-06-2022, 00:43:24,    353,    0.2,    6.9,   0.00,   0.00, 1013.6,   99.0, -999.0
19-06-2022, 00:43:33,    352,    0.0,    6.9,   0.00,   0.00, 1013.5,   98.8, -999.0
19-06-2022, 00:43:43,    352,    0.0,    6.8,   0.00,   0.00, 1013.4,   98.8, -999.0
19-06-2022, 00:43:54,    353,    0.5,    6.9,   0.00,   0.00, 1013.6,   99.1, -999.0
19-06-2022, 00:44:03,    353,    0.3,    6.9,   0.00,   0.00, 1013.5,   99.0, -999.0
19-06-2022, 00:44:13,    353,    0.1,    6.9,   0.00,   0.00, 1013.5,   99.0, -999.0
19-06-2022, 00:44:23,    353,    0.8,    6.9,   0.00,   0.00, 1013.5,   99.1, -999.0
19-06-2022, 00:44:33,    353,    0.7,    6.9,   0.00,   0.00, 1013.5,   99.2, -999.0
19-06-2022, 00:44:43,    353,    0.5,    6.9,   0.00,   0.00, 1013.5,   99.1, -999.0
19-06-2022, 00:44:53,    352,    0.8,    6.7,   0.00,   0.00, 1013.5,   99.2, -999.0
19-06-2022, 00:45:03,    352,    0.3,    6.8,   0.00,   0.00, 1013.4,   99.1, -999.0
19-06-2022, 00:45:13,    352,    0.6,    6.9,   0.00,   0.00, 1013.5,   99.0, -999.0
19-06-2022, 00:45:23,    352,    0.8,    6.9,   0.00,   0.00, 1013.5,   99.1, -999.0
19-06-2022, 00:45:33,    352,    0.9,    6.9,   0.00,   0.00, 1013.5,   99.1, -999.0
19-06-2022, 00:45:43,    353,    0.3,    6.8,   0.00,   0.00, 1013.4,   99.2, -999.0
19-06-2022, 00:45:53,    352,    0.4,    6.8,   0.00,   0.00, 1013.4,   99.3, -999.0
19-06-2022, 00:46:03,    352,    0.1,    6.9,   0.00,   0.00, 1013.4,   98.9, -999.0
19-06-2022, 00:46:13,    352,    0.0,    6.8,   0.00,   0.00, 1013.3,   98.7, -999.0
19-06-2022, 00:46:23,    352,    0.3,    6.9,   0.00,   0.00, 1013.3,   99.1, -999.0
19-06-2022, 00:46:33,    353,    0.3,    6.8,   0.00,   0.00, 1013.4,   99.1, -999.0
19-06-2022, 00:46:42,    352,    0.5,    6.8,   0.00,   0.00, 1013.3,   99.1, -999.0